Location: DARK SKY Beskydy - Park tmavé oblohy, www.darkskybeskydy.cz
(49.4926°N, 18.5016°E)
Time: 21:08:40
(UTC+01:00)

N. Korean satellite - Visible Passes

Search period start: 24 March 2023 00:00
Search period end: 03 April 2023 01:00
Orbit: 393 x 418 km, 97.3° (Epoch: 24 March)

Date Brightness Start Highest point End Pass type
(mag) Time Alt. Az. Time Alt. Az. Time Alt. Az.
24 Mar 9.0 04:40:05 10° NE 04:42:39 22° E 04:45:11 10° SSE visible
26 Mar 9.3 05:34:50 10° NE 05:37:10 19° E 05:39:29 10° SE visible
28 Mar 9.4 05:28:49 10° NE 05:30:51 16° E 05:32:52 10° SE visible
30 Mar 9.6 05:22:07 10° ENE 05:23:41 13° E 05:25:14 10° ESE visible
01 Apr 9.9 05:15:03 10° ENE 05:15:40 10° E 05:16:17 10° E visible
